Location: Orange Harbor Mobile Home Park
(26.6923°N, 81.7937°W)
Time: 22:50:25
(UTC+00:00)

GPS 2-04 Rocket1 - Pass Details

Date: 19 September 2020
Orbit: 417 x 548 km, 35.6° (Epoch: 25 October)

Event Time Altitude Azimuth Distance (km) Brightness Sun altitude
Rises 00:21:22 0° 293° (WNW) 2,705 8.0 -12.8°
Reaches altitude 10° 00:23:39 10° 290° (WNW) 1,808 6.8 -13.3°
Maximum altitude 00:27:48 65° 209° (SSW) 591 3.0 -14.2°
Enters shadow 00:30:22 22° 131° (SE) 1,205 4.1 -14.8°
